Hourly Data Report for September 19, 2016

All times are specified in Local Standard Time (LST). Add 1 hour to adjust for Daylight Saving Time where and when it is observed.

CHARLOTTETOWN A
PRINCE EDWARD ISLAND

46°17'21.000" N
63°07'09.000" W
48.50 m
8300301
71706
YYG

Download Data

Hourly Data (September 2016)
Hourly Data Report for September 19, 2016
Temp Definition
°C
Dew Point Temp Definition
°C
Rel Hum Definition
%
Wind Dir Definition
10's deg

Wind Spd Definition
km/h
Visibility Definition
km
Stn Press Definition
kPa
Hmdx Definition


Wind Chill Definition


Weather Definition


TIME
00:00 Legend Double Dagger 17.6 17.0 96 24 10 16.1 101.15     LegendNANA
01:00 Legend Double Dagger 17.6 17.0 96 22 10 12.9 101.16     LegendNANA
02:00 Legend Double Dagger 17.4 16.8 96 24 16 8.1 101.17     Fog
03:00 Legend Double Dagger 17.5 17.0 97 23 11 8.1 101.18     Fog
04:00 Legend Double Dagger 17.3 16.8 97 22 11 9.7 101.18     Fog
05:00 Legend Double Dagger 17.5 17.0 97 23 6 9.7 101.19     Fog
06:00 Legend Double Dagger 17.6 17.1 97 20 9 8.1 101.25     Fog
07:00 Legend Double Dagger 17.6 17.1 97 21 11 8.1 101.30     Drizzle,Fog
08:00 Legend Double Dagger 18.0 17.5 97 24 10 12.9 101.34     Cloudy
09:00 Legend Double Dagger 18.8 17.8 94 24 9 16.1 101.40     LegendNANA
10:00 Legend Double Dagger 19.2 17.9 92 24 11 16.1 101.46     LegendNANA
11:00 Legend Double Dagger 19.5 17.8 90 25 8 19.3 101.47     Cloudy
12:00 Legend Double Dagger 19.5 17.8 90 21 12 24.1 101.48     LegendNANA
13:00 Legend Double Dagger 19.4 17.7 90 21 8 19.3 101.46     LegendNANA
14:00 Legend Double Dagger 19.5 17.7 89 36 3 24.1 101.42     Rain
15:00 Legend Double Dagger 19.5 18.0 91 14 7 19.3 101.44     Rain
16:00 Legend Double Dagger 18.8 18.0 95 17 8 8.1 101.49     Rain,Fog
17:00 Legend Double Dagger 18.4 17.8 96 18 8 8.1 101.53     Rain,Fog
18:00 Legend Double Dagger 18.1 17.6 97 14 3 4.0 101.53     Rain,Fog
19:00 Legend Double Dagger 17.6 17.3 98 36 3 4.8 101.54     Rain,Fog
20:00 Legend Double Dagger 17.4 17.1 98 36 3 16.1 101.56     Rain
21:00 Legend Double Dagger 17.2 16.9 98 8 4 0.8 101.55     Rain,Fog
22:00 Legend Double Dagger 17.7 17.4 98 12 8 0.8 101.52     Rain,Fog
23:00 Legend Double Dagger 17.7 17.4 98 15 10 6.4 101.51     Rain,Fog

Notes on Data Quality.

Legend

  • E = Estimated
  • M = Missing
  • NA = Not Available
  • ‡ = Partner data that is not subject to review by the National Climate Archives
Date modified: